Regional Weather Roundup
Issued by NWS

Home | Current Version | Previous Version | Text Only | Print | Product List | Glossary On
Versions: 1 2 3 4 5 6 7 8 9 10 11 12 13 14 15 16 17 18 19 20 21 22 23 24 25 26 27 28 29 30 31 32 33 34 35 36 37 38 39 40 41 42 43 44 45 46 47 48 49 50
000
ASUS45 KBOI 262010
RWRID

IDAHO REGIONAL WEATHER ROUNDUP
NATIONAL WEATHER SERVICE BOISE ID
200 PM MDT MON SEP 26 2016

NOTE: "FAIR" INDICATES FEW OR NO CLOUDS BELOW 12000 FEET
WITH NO SIGNIFICANT WEATHER AND/OR OBSTRUCTIONS TO VISIBILITY

IDZ012-014-262100-
SOUTHWEST IDAHO


CITY           SKY/WX    TMP DP  RH WIND       PRES   REMARKS
BOISE          SUNNY     79  36  21 SE8       30.27F
CALDWELL       SUNNY     79  40  24 E9        30.26F
MOUNTAIN HOME  SUNNY     76  41  28 E14       30.28F
$$

IDZ016-017-262100-
SOUTHCENTRAL IDAHO


CITY           SKY/WX    TMP DP  RH WIND       PRES   REMARKS
BURLEY         SUNNY     71  43  36 NE9       30.34F
JEROME         SUNNY     74  40  29 NE12      30.35F
TWIN FALLS     SUNNY     72  47  40 NE9       30.34F
$$

IDZ019>023-262100-
SOUTHEAST IDAHO


CITY           SKY/WX    TMP DP  RH WIND       PRES   REMARKS
IDAHO FALLS    SUNNY     68  43  40 N5        30.40F
POCATELLO      SUNNY     70  41  34 VRB5      30.38F
REXBURG        SUNNY     64  42  44 VRB3      30.41F
$$

IDZ006-010-011-018-031-032-262100-
CENTRAL IDAHO MOUNTAINS


CITY           SKY/WX    TMP DP  RH WIND       PRES   REMARKS
MCCALL         SUNNY     71  37  28 S5        30.35F
HAILEY         MOSUNNY   68  48  49 E12       30.42F
STANLEY          N/A     71  35  26 VRB5      30.44F
SALMON         CLOUDY    64  45  48 CALM      30.35F
CHALLIS        SUNNY     68  40  35 VRB3      30.38F
$$

IDZ002-004-006-007-026-262100-
NORTHERN IDAHO


CITY           SKY/WX    TMP DP  RH WIND       PRES   REMARKS
LEWISTON       SUNNY     82  44  26 E5        30.13F
LOWELL           N/A     75  49  39 CALM      30.19F
COEUR D`ALENE  NOT AVBL
MULLAN PASS    MOSUNNY   63  45  51 CALM      30.37F
$$



USA.gov is the U.S. government's official web portal to all federal, state and local government web resources and services.